[[{"header":{"parameterUnit":"m.s-1","parameterCategory":1,"la1":30.2991,"la2":30.254,"lo1":-89.0895,"lo2":-89.0444,"dy":0.0017,"dx":0.0017,"nx":28,"ny":28,"refTime":"2025-02-26T03:00:00:Z","depth":0,"parameterNumber":2,"parameterNumberName":"U-component_of_WINDS"},"data":[0,0,0,0,0,0,0,0,0,0,0,0,0,0,0,0,0,0,0,0,0,0,0,0,0,0,0,0,0,0,0,0,0,0,0,0,0,0,0,0,0,0,0,0,0,0,0,0,0,0,0,0,0,0,0,0,0,0,2.2096,2.2097,0,2.2208,2.2209,2.221,2.2197,2.2195,2.2194,2.2192,2.2311,2.2316,2.232,0,0,0,0,0,0,0,0,0,0,0,0,0,2.1874,2.1878,2.2096,2.2097,2.2099,2.2208,2.2209,2.2211,2.2198,2.2195,2.2193,2.2191,2.2309,2.2315,2.2321,0,0,0,0,0,0,0,0,0,0,0,0,0,2.1976,2.1879,2.2095,2.2105,2.2107,2.2207,2.2209,2.2211,2.2198,2.2195,2.2193,2.219,2.2307,2.2314,2.2322,2.2421,0,0,2.2344,2.2347,0,0,0,0,0,0,0,0,2.1971,2.1985,2.2102,2.2104,2.2107,2.2186,2.2175,2.2282,2.2199,2.2164,2.2192,2.2189,2.2272,2.2282,2.2309,2.2427,2.2432,2.2345,2.2349,2.2352,2.2354,0,0,0,0,0,0,0,2.1963,2.198,2.214,2.2104,2.2107,2.2105,2.2116,2.2195,2.2232,2.2166,2.2166,2.2179,2.2272,2.2302,2.2312,2.2434,2.2344,2.2351,2.2355,2.2358,2.2638,2.2641,0,0,0,0,0,0,2.1953,2.1974,2.2137,2.2144,2.203,2.2111,2.2124,2.2163,2.2231,2.2238,2.2181,2.2178,2.2291,2.2303,2.2316,2.2436,2.2352,2.2359,2.2363,2.2635,2.2639,2.2642,0,0,0,0,0,0,2.1949,2.1968,2.2132,2.2059,2.2079,2.2118,2.2162,2.2167,2.2196,2.2242,2.2249,2.2204,2.2289,2.2305,2.2395,2.244,2.2362,2.2369,2.2632,2.2637,2.2641,2.2679,0,0,0,0,0,0,2.1942,2.1966,2.2004,2.2059,2.2083,2.2208,2.2165,2.2171,2.2208,2.2205,2.2265,2.2273,2.2288,2.2384,2.2402,2.2449,2.2374,2.2628,2.2634,2.2639,2.2674,2.2684,2.2693,0,0,0,0,0,2.1935,2.2011,2.2006,2.2026,2.2131,2.2211,2.2225,2.224,2.2212,2.225,2.228,2.2271,2.2432,2.2393,2.2413,2.2463,2.2625,2.2632,2.2639,2.2669,2.2682,2.2693,0,0,0,0,0,0,2.1961,2.2019,2.2013,2.211,2.2155,2.2208,2.2257,2.2253,2.2308,2.2303,2.2321,2.2335,2.2425,2.2453,2.2408,2.2563,2.2525,2.2536,2.2541,2.2554,2.2563,2.2555,2.2381,0,0,0,0,0,2.1978,2.2038,2.2085,2.2165,2.2188,2.2219,2.2255,2.2262,2.2311,2.233,2.2366,2.2415,2.2476,2.2517,2.2576,2.2677,2.2691,2.2722,2.2732,2.2739,2.2749,2.2805,2.2819,2.2665,2.2665,2.2665,0,0,2.2014,2.2053,2.209,2.2172,2.2208,2.227,2.2235,2.2303,2.2349,2.2341,2.2427,2.2455,2.251,2.2606,2.265,2.2632,2.2794,2.2748,2.2754,2.276,2.2813,2.2828,2.2841,2.267,2.2669,2.2668,0,0,2.2112,2.2146,2.2217,2.2254,2.2309,2.2328,2.2345,2.2399,2.2417,2.2503,2.2498,2.2554,2.266,2.27,2.2733,2.2845,2.2839,2.2864,2.2915,2.2969,2.2981,2.2992,2.3032,2.3046,2.2873,2.2874,2.2874,0,2.215,2.2242,2.2255,2.2322,2.2359,2.2353,2.2425,2.2461,2.2533,2.2558,2.2537,2.2669,2.2706,2.2811,2.2838,2.2866,2.2886,2.2857,2.2978,2.2989,2.3,2.3038,2.3053,2.2876,2.2876,2.2876,2.2875,0,2.2286,2.235,2.2401,2.2469,2.2511,2.2581,2.2606,2.2647,2.2651,2.2673,2.2761,2.2805,2.2873,2.2898,2.2903,2.3004,2.2991,2.2974,2.2936,2.3017,2.3053,2.3068,2.288,2.2879,2.2878,2.2878,0,0,2.2404,2.2477,2.2496,2.2527,2.2586,2.2637,2.2706,2.2771,2.2806,2.2856,2.2916,2.3005,2.2989,2.3027,2.3037,2.3084,2.317,2.3062,2.3063,2.308,2.3283,2.3296,2.3312,2.3166,2.3169,2.3171,2.3279,0,2.2507,2.2629,2.2643,2.2752,2.2811,2.2806,2.2867,2.2911,2.2933,2.2988,2.3013,2.3076,2.305,2.3074,2.312,2.3149,2.3211,2.3142,2.3222,2.3225,2.3208,2.3331,2.3345,2.3444,2.3293,2.3295,2.3297,0,2.2644,2.2696,2.2811,2.2862,2.2887,2.2941,2.3002,2.3054,2.3103,2.3116,2.3159,2.3162,2.3235,2.3194,2.3294,2.3247,2.3281,2.33,2.3304,2.3313,2.3266,2.3343,2.3477,2.3491,2.3319,2.3318,2.3316,0,2.2718,2.2817,2.2899,2.2925,2.2987,2.3025,2.3052,2.3099,2.3137,2.319,2.3215,2.3277,2.3311,2.3359,2.3378,2.3347,2.3478,2.3439,2.3492,2.3491,2.352,2.3518,2.3661,2.3541,2.3541,2.3541,2.3541,0,2.2832,2.2903,2.2933,2.2983,2.3062,2.3077,2.3155,2.3181,2.3223,2.3278,2.3278,2.3331,2.3353,2.341,2.3426,2.3507,2.3522,2.3535,2.3539,2.3535,2.3534,2.3558,2.3551,2.3545,2.3544,2.3543,2.3543,0,2.2929,2.2952,2.304,2.3091,2.3105,2.3161,2.3205,2.3253,2.3275,2.3345,2.3363,2.3397,2.3463,2.3487,2.3569,2.3579,2.3673,2.3671,2.3656,2.3657,2.3708,2.3703,2.3871,2.3894,2.376,2.3761,2.3762,0,2.3,2.3054,2.311,2.3146,2.3175,2.3234,2.3272,2.329,2.333,2.339,2.3432,2.3497,2.355,2.3656,2.3689,2.3751,2.375,2.3805,2.376,2.3754,2.3751,2.3747,2.3753,2.3814,2.3815,2.3816,2.3817,0,2.3124,2.3132,2.3187,2.3246,2.3291,2.3339,2.3385,2.3415,2.3439,2.3484,2.3551,2.3592,2.3674,2.3739,2.3803,2.3832,2.3829,2.3831,2.3846,2.3844,2.3832,2.3839,2.3679,2.3827,2.3826,2.3825,2.3825,2.3825,2.321,2.3257,2.3304,2.3365,2.3401,2.3444,2.3492,2.3519,2.3574,2.3641,2.3648,2.372,2.3769,2.3853,2.3885,2.3942,2.3927,2.395,2.3956,2.3961,2.3964,2.3823,2.3954,2.3954,2.3953,2.3953,2.3953,0,2.3333,2.3363,2.3418,2.3482,2.353,2.3522,2.3572,2.3613,2.3676,2.3721,2.3773,2.3849,2.3912,2.395,2.4013,2.4051,2.4052,2.4067,2.4065,2.4072,2.3974,2.3954,2.4066,2.4066,2.4066,2.4066,2.4066,2.4066,2.3403,2.3483,2.3497,2.3594,2.3624,2.3693,2.3722,2.3762,2.3798,2.3883,2.3935,2.3958,2.4,2.4066,2.4124,2.4133,2.4156,2.4174,2.4182,2.409,2.4079,2.4067,2.4049,2.4179,2.4179,2.4274,2.4275,2.4276]},{"header":{"parameterUnit":"m.s-1","parameterCategory":1,"la1":30.2991,"la2":30.254,"lo1":-89.0895,"lo2":-89.0444,"dy":0.0017,"dx":0.0017,"nx":28,"ny":28,"refTime":"2025-02-26T03:00:00:Z","depth":0,"parameterNumber":3,"parameterNumberName":"V-component_of_WINDS"},"data":[0,0,0,0,0,0,0,0,0,0,0,0,0,0,0,0,0,0,0,0,0,0,0,0,0,0,0,0,0,0,0,0,0,0,0,0,0,0,0,0,0,0,0,0,0,0,0,0,0,0,0,0,0,0,0,0,0,0,2.2369,2.237,0,2.2431,2.2432,2.2433,2.2385,2.2383,2.2381,2.2379,2.2441,2.2445,2.2448,0,0,0,0,0,0,0,0,0,0,0,0,0,2.2203,2.2207,2.2369,2.237,2.237,2.2431,2.2432,2.2433,2.2386,2.2383,2.2381,2.2378,2.244,2.2444,2.2448,0,0,0,0,0,0,0,0,0,0,0,0,0,2.2271,2.2208,2.2369,2.2354,2.2353,2.2431,2.2432,2.2433,2.2386,2.2383,2.238,2.2377,2.2438,2.2444,2.2449,2.2544,0,0,2.2465,2.2468,0,0,0,0,0,0,0,0,2.2268,2.2278,2.2355,2.2355,2.2355,2.2397,2.2396,2.247,2.2387,2.2374,2.2379,2.2375,2.2429,2.2435,2.2453,2.2547,2.2549,2.2466,2.2469,2.2471,2.2473,0,0,0,0,0,0,0,2.2263,2.2275,2.2393,2.2357,2.2356,2.2343,2.2349,2.241,2.2418,2.2375,2.2371,2.2379,2.2428,2.2448,2.2454,2.255,2.2466,2.247,2.2474,2.2476,2.2719,2.2722,0,0,0,0,0,0,2.226,2.2271,2.2391,2.2395,2.2303,2.2348,2.2355,2.2387,2.2417,2.2419,2.2382,2.2377,2.2441,2.2448,2.2456,2.2565,2.2471,2.2476,2.2479,2.2716,2.272,2.2723,0,0,0,0,0,0,2.2257,2.2271,2.2389,2.2332,2.2346,2.2354,2.239,2.239,2.241,2.2423,2.2423,2.2402,2.2438,2.2449,2.2521,2.2567,2.2479,2.2484,2.2712,2.2717,2.2721,2.2787,0,0,0,0,0,0,2.2252,2.227,2.2308,2.2334,2.2349,2.2455,2.2393,2.2393,2.2419,2.2413,2.2441,2.2443,2.2437,2.2514,2.2527,2.2573,2.2488,2.2708,2.2714,2.272,2.2781,2.2793,2.2804,0,0,0,0,0,2.2246,2.2325,2.231,2.2325,2.2397,2.2458,2.2466,2.2459,2.2423,2.246,2.2467,2.2442,2.2561,2.2521,2.2536,2.2584,2.2705,2.2712,2.2719,2.2775,2.2791,2.2804,0,0,0,0,0,0,2.2305,2.2328,2.2312,2.2401,2.2428,2.2449,2.2495,2.2476,2.2513,2.2506,2.2494,2.25,2.2576,2.2588,2.2544,2.2675,2.2627,2.2637,2.2664,2.2679,2.2691,2.2685,2.2492,0,0,0,0,0,2.2328,2.2377,2.2394,2.2471,2.2485,2.2488,2.2514,2.2505,2.2532,2.2543,2.2556,2.2582,2.2624,2.2653,2.2693,2.2783,2.2785,2.2823,2.2834,2.2844,2.2852,2.2896,2.2911,2.2747,2.2747,2.2747,0,0,2.2377,2.2395,2.2427,2.2483,2.2502,2.255,2.2498,2.2552,2.2587,2.2551,2.2619,2.263,2.2657,2.2738,2.2774,2.275,2.2898,2.2853,2.2861,2.2864,2.2905,2.292,2.2934,2.2752,2.2751,2.275,0,0,2.2489,2.251,2.2573,2.2593,2.2623,2.2624,2.2639,2.2663,2.2668,2.2737,2.2709,2.275,2.2825,2.2845,2.2864,2.298,2.2956,2.2993,2.3054,2.3097,2.3109,2.3121,2.3158,2.3172,2.3002,2.3002,2.3003,0,2.2545,2.2617,2.2608,2.2663,2.2687,2.2657,2.2719,2.2739,2.278,2.2796,2.2769,2.2859,2.2877,2.2958,2.2986,2.3005,2.3019,2.2989,2.3109,2.312,2.313,2.3165,2.318,2.3006,2.3006,2.3006,2.3005,0,2.2683,2.2733,2.2781,2.282,2.2849,2.2908,2.2906,2.2936,2.2925,2.2928,2.2995,2.3014,2.3056,2.3075,2.3065,2.3154,2.3138,2.3111,2.3061,2.315,2.3182,2.3196,2.3012,2.3011,2.301,2.3009,0,0,2.2834,2.2865,2.2882,2.2898,2.2927,2.2965,2.3021,2.3061,2.3085,2.3114,2.3158,2.3221,2.3194,2.3216,2.3208,2.3246,2.333,2.3212,2.3213,2.323,2.3425,2.3443,2.3459,2.3315,2.3318,2.332,2.3421,0,2.2944,2.3041,2.3033,2.3124,2.3168,2.3138,2.3186,2.3208,2.3212,2.3248,2.3252,2.3295,2.3259,2.3271,2.3307,2.3312,2.3368,2.3305,2.3353,2.3355,2.3344,2.3477,2.3497,2.3592,2.3434,2.3436,2.3438,0,2.3086,2.3118,2.3213,2.3231,2.3249,2.3293,2.3326,2.3363,2.3386,2.3385,2.3409,2.3393,2.3446,2.3397,2.3468,2.3425,2.3445,2.345,2.3453,2.3455,2.34,2.3479,2.3622,2.3635,2.3459,2.3457,2.3456,0,2.3181,2.3249,2.3313,2.3328,2.3352,2.3382,2.3393,2.3413,2.3436,2.3466,2.348,2.3516,2.3534,2.3561,2.3554,2.352,2.3625,2.3577,2.3624,2.3624,2.3645,2.3644,2.379,2.3664,2.3663,2.3663,2.3663,0,2.3303,2.3362,2.3355,2.3395,2.3458,2.3447,2.3509,2.3517,2.3534,2.3572,2.355,2.3586,2.3576,2.3611,2.3606,2.3663,2.3673,2.3672,2.3669,2.3672,2.3672,2.3682,2.3674,2.3667,2.3666,2.3665,2.3665,0,2.342,2.3419,2.3486,2.3502,2.3507,2.3553,2.3566,2.3601,2.3602,2.3651,2.3662,2.3663,2.3703,2.3699,2.3745,2.3741,2.381,2.3802,2.3802,2.3799,2.3845,2.3839,2.4001,2.4019,2.3884,2.3885,2.3887,0,2.3496,2.354,2.356,2.3584,2.3596,2.3636,2.3658,2.3649,2.3673,2.37,2.3732,2.3769,2.3799,2.3863,2.3868,2.3901,2.3891,2.3945,2.3895,2.3895,2.3887,2.3883,2.3885,2.3954,2.3955,2.3957,2.3958,0,2.363,2.3626,2.366,2.3693,2.3721,2.3747,2.377,2.379,2.3782,2.381,2.385,2.3873,2.3918,2.3954,2.3985,2.3995,2.3974,2.3973,2.3985,2.3987,2.3984,2.3982,2.3825,2.3969,2.3968,2.3967,2.3967,2.3966,2.3726,2.3762,2.378,2.3817,2.3833,2.3855,2.3887,2.3892,2.3925,2.396,2.3953,2.3997,2.4014,2.4054,2.4067,2.4099,2.4079,2.4098,2.4102,2.4105,2.4109,2.3981,2.4106,2.4105,2.4105,2.4105,2.4104,0,2.3855,2.3865,2.39,2.3931,2.396,2.3938,2.3962,2.3987,2.4026,2.4044,2.4073,2.4117,2.4151,2.4157,2.419,2.4214,2.4205,2.4223,2.4219,2.4221,2.4127,2.4112,2.4229,2.4229,2.4229,2.4229,2.4229,2.4229,2.3926,2.3983,2.3981,2.4045,2.4054,2.4097,2.4111,2.4129,2.4144,2.4193,2.4222,2.4226,2.4238,2.427,2.43,2.4301,2.4312,2.4332,2.4329,2.4241,2.4228,2.4216,2.4201,2.4336,2.4336,2.442,2.442,2.4421]}]]